Location: *
(50.9167°S, 179.4000°W)
Time: 21:18:13
(UTC+00:00)

CZ-2C R/B - Pass Details

Date: 26 June 2024
Orbit: 665 x 779 km, 98.4° (Epoch: 18 July)

Event Time Altitude Azimuth Distance (km) Brightness Sun altitude
Rises 05:31:42 0° 176° (S) 3,308 5.5 -13.6°
Reaches altitude 10° 05:34:48 10° 195° (SSW) 2,366 5.0 -14.0°
Maximum altitude 05:38:03 17° 233° (SW) 1,906 5.0 -14.5°
Drops below altitude 10° 05:41:16 10° 272° (W) 2,326 6.2 -15.0°
Sets 05:44:18 0° 291° (WNW) 3,226 7.6 -15.5°
